CW8822 Caguas PR US current weather conditions

sailwx.info

Wind from 120

Air temperature 20.6° C
Dewpoint 18.3° C

Last reported at 2015-Apr-01 02:50 UTC.
Time now 2015-Apr-01 03:11 UTC

Location: N 18°12' W 066°01'.
View on Google Maps.

See reports from other nearby stations

  
Tides and Currents Weather Stations Pressure Air Temp Water Temp Dewpoint Dewpoint Depression Visibility Wind Speed Wind Dir Waves Ship Positions
date/time (UTC)wind fromknots sea level pressurealtimeterstation pressurevisibilityair tempwater tempwave heightnotes
2015-Apr-01 02:50 120 20.6
2015-Apr-01 02:34 120 21.1
2015-Apr-01 02:19 120 21.7
2015-Apr-01 02:04 120 21.7
2015-Apr-01 01:49 122 0 gusting 4 21.7
2015-Apr-01 01:34 124 21.7
2015-Apr-01 01:19 124 21.7
2015-Apr-01 01:04 124 21.7
2015-Apr-01 00:49 125 21.7
2015-Apr-01 00:34 125 22.2
2015-Apr-01 00:19 125 22.2
2015-Apr-01 00:04 125 22.2
2015-Mar-31 23:49 125 22.2
2015-Mar-31 23:34 125 0 gusting 6 22.8
2015-Mar-31 23:19 128 1 gusting 5 22.8
2015-Mar-31 23:04 124 22.8
2015-Mar-31 22:49 130 0 gusting 5 23.3
2015-Mar-31 22:34 132 0 gusting 3 23.3
2015-Mar-31 22:19 127 0 gusting 4 23.9
2015-Mar-31 22:04 080 1 gusting 5 24.4
2015-Mar-31 21:48 098 25.0
2015-Mar-31 21:33 134 0 gusting 11 25.0
2015-Mar-31 21:18 085 1 gusting 6 25.6
2015-Mar-31 21:03 083 0 gusting 8 25.0
2015-Mar-31 20:48 103 1 gusting 9 25.6
2015-Mar-31 20:33 071 2 gusting 8 25.6
2015-Mar-31 20:18 131 1 gusting 6 26.1
2015-Mar-31 20:03 059 1 gusting 6 26.7
2015-Mar-31 19:48 157 1 gusting 10 26.1
2015-Mar-31 19:33 355 25.0
2015-Mar-31 19:18 331 25.0
2015-Mar-31 19:03 116 25.0
2015-Mar-31 18:48 149 0 gusting 5 24.4
2015-Mar-31 18:33 148 3 gusting 6 23.3
2015-Mar-31 18:18 150 0 gusting 4 23.3
2015-Mar-31 18:03 156 2 gusting 5 22.8
2015-Mar-31 17:48 192 22.8
2015-Mar-31 17:33 156 2 gusting 6 24.4
2015-Mar-31 17:18 091 25.6
2015-Mar-31 17:05 057 2 gusting 8 25.6
2015-Mar-31 16:48 070 0 gusting 6 25.6
2015-Mar-31 16:33 047 4 gusting 11 24.4
2015-Mar-31 16:18 087 0 gusting 10 24.4
2015-Mar-31 16:03 073 0 gusting 6 25.0
2015-Mar-31 15:48 031 25.0
2015-Mar-31 15:33 040 25.0
2015-Mar-31 15:18 041 2 gusting 7 25.0
2015-Mar-31 15:03 047 1 gusting 5 24.4
2015-Mar-31 14:48 065 0 gusting 6 24.4
2015-Mar-31 14:33 042 1 gusting 5 24.4
2015-Mar-31 14:18 046 1 gusting 3 23.3
2015-Mar-31 14:03 051 1 gusting 4 23.3
2015-Mar-31 13:48 042 2 gusting 6 23.3
2015-Mar-31 13:34 076 0 gusting 3 23.3
2015-Mar-31 13:18 088 22.2
2015-Mar-31 13:02 088 0 gusting 3 22.2
2015-Mar-31 12:48 005 22.2
2015-Mar-31 12:33 005 21.7
2015-Mar-31 12:18 131 21.7
2015-Mar-31 12:02 087 21.1
2015-Mar-31 11:48 088 20.6
2015-Mar-31 11:33 069 20.0
2015-Mar-31 11:18 069 1 gusting 4 20.0
2015-Mar-31 11:03 066 20.0
2015-Mar-31 10:48 066 20.0
2015-Mar-31 10:33 066 19.4
2015-Mar-31 10:18 066 18.9
2015-Mar-31 10:03 146 1 gusting 3 19.4
2015-Mar-31 09:48 190 20.0
2015-Mar-31 09:33 190 0 gusting 4 20.0
2015-Mar-31 09:18 190 1 gusting 4 20.0
2015-Mar-31 09:03 190 0 gusting 5 20.0
2015-Mar-31 08:48 190 19.4
2015-Mar-31 08:33 190 19.4
2015-Mar-31 08:18 190 19.4
2015-Mar-31 08:03 190 19.4
2015-Mar-31 07:48 176 3 gusting 5 19.4
2015-Mar-31 07:33 123 19.4
2015-Mar-31 07:18 123 19.4
2015-Mar-31 07:03 123 1 gusting 2 19.4
2015-Mar-31 06:48 123 20.0
2015-Mar-31 06:33 123 20.0
2015-Mar-31 06:18 123 20.0
2015-Mar-31 06:03 123 20.0
2015-Mar-31 05:48 123 1 gusting 3 20.6
2015-Mar-31 05:33 123 20.6
2015-Mar-31 05:18 123 20.6
2015-Mar-31 05:02 123 1 gusting 2 20.6
2015-Mar-31 04:47 123 1 gusting 3 20.6
2015-Mar-31 04:32 123 20.6
2015-Mar-31 04:17 123 20.6
2015-Mar-31 04:02 123 20.6
2015-Mar-31 03:47 123 21.1
2015-Mar-31 03:32 123 0 gusting 3 21.1
2015-Mar-31 03:17 123 21.1
2015-Mar-31 03:02 123 21.7
2015-Mar-31 02:47 123 21.7
2015-Mar-31 02:32 123 21.7
2015-Mar-31 02:17 123 21.7
2015-Mar-31 02:02 123 21.7
2015-Mar-31 01:48 123 21.7
2015-Mar-31 01:32 123 21.7
2015-Mar-31 01:17 123 21.7
2015-Mar-31 01:02 123 21.7
2015-Mar-31 00:47 123 22.2
2015-Mar-31 00:32 123 22.2
2015-Mar-31 00:17 116 22.2
2015-Mar-31 00:02 106 0 gusting 3 22.2
2015-Mar-30 23:47 137 1 gusting 7 22.8
2015-Mar-30 23:32 103 0 gusting 5 22.8
2015-Mar-30 23:17 129 1 gusting 6 22.8
2015-Mar-30 23:02 098 1 gusting 6 23.3
2015-Mar-30 22:47 130 0 gusting 4 23.3
2015-Mar-30 22:32 115 0 gusting 4 23.9
2015-Mar-30 22:17 116 0 gusting 6 24.4
2015-Mar-30 22:02 086 0 gusting 4 24.4
2015-Mar-30 21:47 124 1 gusting 6 25.0
2015-Mar-30 21:32 084 0 gusting 6 25.6
2015-Mar-30 21:17 080 1 gusting 9 25.6
2015-Mar-30 21:02 095 2 gusting 6 26.1
2015-Mar-30 20:47 067 2 gusting 7 26.7
2015-Mar-30 20:32 078 2 gusting 9 26.7
2015-Mar-30 20:17 098 1 gusting 13 26.1
2015-Mar-30 20:02 050 2 gusting 9 26.7
2015-Mar-30 19:47 148 3 gusting 10 27.2
2015-Mar-30 19:32 084 2 gusting 11 27.2
2015-Mar-30 19:17 130 3 gusting 11 26.7
2015-Mar-30 18:47 134 2 gusting 6 27.2
2015-Mar-30 18:32 118 27.2
2015-Mar-30 18:17 076 2 gusting 7 27.2
2015-Mar-30 18:02 092 1 gusting 6 26.7
2015-Mar-30 17:46 099 2 gusting 6 26.1
2015-Mar-30 17:31 082 2 gusting 6 26.1
2015-Mar-30 17:16 084 0 gusting 6 25.6
2015-Mar-30 17:01 095 25.6
2015-Mar-30 16:46 082 2 gusting 7 26.7
2015-Mar-30 16:31 057 2 gusting 6 26.7
2015-Mar-30 16:16 098 0 gusting 9 26.7
2015-Mar-30 16:01 107 27.2
2015-Mar-30 15:46 078 2 gusting 6 27.8
2015-Mar-30 15:31 076 1 gusting 5 27.2
2015-Mar-30 15:16 088 2 gusting 8 27.2
2015-Mar-30 15:01 075 2 gusting 9 27.8
2015-Mar-30 14:46 131 0 gusting 10 26.7
2015-Mar-30 14:31 055 2 gusting 8 27.2
2015-Mar-30 14:16 070 0 gusting 5 26.7
2015-Mar-30 14:01 041 0 gusting 4 26.1
2015-Mar-30 13:46 069 0 gusting 3 24.4
2015-Mar-30 13:31 074 23.9
2015-Mar-30 13:16 040 1 gusting 7 24.4
2015-Mar-30 13:01 074 0 gusting 6 24.4
2015-Mar-30 12:46 028 23.3
2015-Mar-30 12:31 036 22.2
2015-Mar-30 12:16 037 21.1
2015-Mar-30 12:01 126 20.6
2015-Mar-30 11:46 126 20.6
2015-Mar-30 11:31 126 20.6
2015-Mar-30 11:16 126 0 gusting 2 19.4
2015-Mar-30 11:01 126 19.4
2015-Mar-30 10:45 172 1 gusting 4 19.4
2015-Mar-30 10:32 146 18.9
2015-Mar-30 10:15 146 18.9
2015-Mar-30 10:00 146 18.9
2015-Mar-30 09:45 146 18.9
2015-Mar-30 09:30 146 0 gusting 2 19.4
2015-Mar-30 09:15 146 19.4
2015-Mar-30 09:00 146 19.4
2015-Mar-30 08:45 146 19.4
2015-Mar-30 08:30 146 0 gusting 1 19.4
2015-Mar-30 08:15 146 19.4
2015-Mar-30 08:00 146 19.4
2015-Mar-30 07:45 146 19.4
2015-Mar-30 07:30 146 19.4
2015-Mar-30 07:15 146 20.0
2015-Mar-30 07:00 146 20.0
2015-Mar-30 06:45 146 0 gusting 3 20.0
2015-Mar-30 06:30 145 20.0
2015-Mar-30 06:15 146 20.0
2015-Mar-30 06:00 146 20.6
2015-Mar-30 05:45 158 21.1
2015-Mar-30 05:30 130 1 gusting 3 21.1
2015-Mar-30 05:15 129 1 gusting 3 21.1
2015-Mar-30 05:00 129 21.1
2015-Mar-30 04:45 129 21.7
2015-Mar-30 04:30 129 0 gusting 3 21.1
2015-Mar-30 04:15 130 1 gusting 3 21.1
2015-Mar-30 04:00 130 21.7
2015-Mar-30 03:45 130 21.7
2015-Mar-30 03:30 129 0 gusting 2 21.7
2015-Mar-30 03:14 129 22.2